Tucumcari, NM

3:32 AM MDT on August 22, 2017 (GMT -0600)
Tucumcari Municipal

Weather History for KTCC - August, 2014

Change the Weather History Date:

Saturday, August 30, 2014

  Actual Average Record
Temperature  
Mean Temperature 79 °F -  
Max Temperature 98 °F 89 °F 102 °F (2011)
Min Temperature 62 °F 61 °F 49 °F (1915)
Cooling Degree Days 14    
Growing Degree Days 29 (Base 50)    
Moisture  
Dew Point 47 °F    
Average Humidity 33    
Maximum Humidity 62    
Minimum Humidity 14    
Precipitation  
Precipitation 0.00 in - - ()
Sea Level Pressure  
Sea Level Pressure 29.83 in    
Wind  
Wind Speed 8 mph (SSW)    
Max Wind Speed 23 mph    
Max Gust Speed 32 mph    
Visibility 10 miles    
Events Thunderstorm    
Averages and records for this station are not official NWS values.
T = Trace of Precipitation, MM = Missing Value Source: NWS Daily Summary

Daily Weather History Graph

Daily Weather History Graph

Search for Another Location

Airport or City:

Trip Planner

Search our weather history database for the weather conditions in past years. The results will help you decide how hot, cold, wet, or windy it might be!

Date:

Astronomy

Aug. 30, 2014 Rise Set
Actual Time 6:25 AM MDT 7:23 PM MDT
Civil Twilight 5:59 AM MDT 7:49 PM MDT
Nautical Twilight 5:28 AM MDT 8:20 PM MDT
Astronomical Twilight 4:56 AM MDT 8:52 PM MDT
Moon 11:03 AM MDT (8/30) 10:12 PM MDT (8/30)
Length of Visible Light 13h 50m
Length of Day
12h 58m
Waxing Crescent, 23% of the Moon is Illuminated
Aug 30
Waxing Crescent
Sep 2
First Quarter
Sep 8
Full
Sep 15
Last Quarter
Sep 24
New

Hourly Weather History & Observations

Time (MDT) Temp. Heat Index Dew Point Humidity Pressure Visibility Wind Dir Wind Speed Gust Speed Precip Events Conditions
12:53 AM 70.0 °F - 37.9 °F 31% 29.87 in 10.0 mi ESE 3.5 mph - N/A   Clear
1:53 AM 66.0 °F - 41.0 °F 40% 29.88 in 10.0 mi NE 3.5 mph - N/A   Clear
2:53 AM 66.9 °F - 41.0 °F 39% 29.89 in 10.0 mi Calm Calm - N/A   Partly Cloudy
3:53 AM 69.1 °F - 48.9 °F 49% 29.89 in 10.0 mi West 8.1 mph - N/A   Clear
4:53 AM 66.9 °F - 52.0 °F 59% 29.90 in 10.0 mi WSW 8.1 mph - N/A   Partly Cloudy
5:53 AM 62.1 °F - 48.9 °F 62% 29.92 in 10.0 mi Calm Calm - N/A   Clear
6:53 AM 64.0 °F - 46.0 °F 52% 29.94 in 10.0 mi NNE 3.5 mph - N/A   Clear
7:53 AM 71.1 °F - 48.0 °F 44% 29.94 in 10.0 mi Calm Calm - N/A   Clear
8:53 AM 75.9 °F - 55.9 °F 50% 29.93 in 10.0 mi SSE 4.6 mph - N/A   Clear
9:53 AM 80.1 °F 80.7 °F 59.0 °F 48% 29.92 in 10.0 mi Variable 3.5 mph - N/A   Clear
10:53 AM 86.0 °F 85.0 °F 57.9 °F 38% 29.89 in 10.0 mi WSW 11.5 mph - N/A   Clear
11:53 AM 91.0 °F - 50.0 °F 24% 29.86 in 10.0 mi SSW 13.8 mph - N/A   Partly Cloudy
12:53 PM 91.0 °F - 46.9 °F 22% 29.82 in 10.0 mi SW 9.2 mph 24.2 mph N/A   Scattered Clouds
1:53 PM 95.0 °F - 43.0 °F 17% 29.79 in 10.0 mi SSW 16.1 mph 26.5 mph N/A   Partly Cloudy
2:53 PM 95.0 °F - 45.0 °F 18% 29.76 in 10.0 mi SW 11.5 mph 26.5 mph N/A   Clear
3:53 PM 96.1 °F - 39.9 °F 14% 29.72 in 10.0 mi SW 15.0 mph - N/A   Partly Cloudy
4:53 PM 93.9 °F - 44.1 °F 18% 29.71 in 10.0 mi SSW 9.2 mph - N/A   Scattered Clouds
5:29 PM 93.9 °F - 44.1 °F 18% 29.92 in 10.0 mi SSW 18.4 mph 25.3 mph N/A Thunderstorm Partly Cloudy
5:53 PM 95.0 °F - 46.0 °F 19% 29.71 in 10.0 mi SSW 19.6 mph 25.3 mph N/A   Partly Cloudy
6:53 PM 90.0 °F - 46.0 °F 22% 29.73 in 10.0 mi SSW 12.7 mph - N/A   Clear
7:53 PM 87.1 °F - 45.0 °F 23% 29.73 in 10.0 mi SSW 15.0 mph - N/A   Clear
8:53 PM 82.9 °F - 45.0 °F 26% 29.73 in 10.0 mi SSW 11.5 mph - N/A   Clear
9:53 PM 82.0 °F - 43.0 °F 25% 29.75 in 10.0 mi South 16.1 mph - N/A   Clear
10:53 PM 81.0 °F - 45.0 °F 28% 29.74 in 10.0 mi South 19.6 mph - N/A   Clear
11:53 PM 79.0 °F - 46.9 °F 32% 29.74 in 10.0 mi South 23.0 mph 32.2 mph N/A   Clear